Weather History for Denver, CO

Change the Weather History Date:

Wednesday, October 6, 2010

  Actual Average Record
Temperature  
Mean Temperature 59 °F 55 °F  
Max Temperature 67 °F 69 °F 87 °F (1975)
Min Temperature 50 °F 40 °F 26 °F (1995)
Degree Days  
Heating Degree Days 6 11  
Month to date heating degree days 12 58  
Since 1 July heating degree days 47 199  
Cooling Degree Days 0 0  
Month to date cooling degree days 6 1  
Year to date cooling degree days 868 765  
Growing Degree Days 9 (Base 50)    
Moisture  
Dew Point 45 °F    
Average Humidity 61    
Maximum Humidity 77    
Minimum Humidity 45    
Precipitation  
Precipitation 0.00 in 0.03 in 0.21 in (1886)
Month to date precipitation T 0.22  
Year to date precipitation 11.61 12.54  
Snow  
Snow 0.00 in - - ()
Month to date snowfall 0  
Since 1 July snowfall 0  
Since 1 September snowfall 0  
Snow Depth 0.00 in    
Sea Level Pressure  
Sea Level Pressure 30.23 in    
Wind  
Wind Speed 8 mph (NNE)    
Max Wind Speed 17 mph    
Max Gust Speed 25 mph    
Visibility 10 miles    
Events      
T = Trace of Precipitation, MM = Missing Value Source: NWS Daily Summary

Daily Weather History Graph

Daily Weather History Graph

Search for Another Location

Airport:

Trip Planner

Search our weather history database for the weather conditions in past years. The results will help you decide how hot, cold, wet, or windy it might be!

Date:

Astronomy

Oct. 06, 2010 Rise Set
Actual Time 6:59 AM MDT 6:32 PM MDT
Civil Twilight 6:32 AM MDT 6:59 PM MDT
Nautical Twilight 6:01 AM MDT 7:31 PM MDT
Astronomical Twilight 5:30 AM MDT 8:02 PM MDT
Moon 5:39 AM MDT (10/6) 5:37 PM MDT (10/6)
Length of Visible Light 12h 27m
Length of Day
11h 33m
Waning Crescent, 2% of the Moon is Illuminated
Oct 6
Waning Crescent
Oct 7
New
Oct 14
First Quarter
Oct 22
Full
Oct 30
Last Quarter

Hourly Weather History & Observations

Time (MDT) Temp. Dew Point Humidity Pressure Visibility Wind Dir Wind Speed Gust Speed Precip Events Conditions
12:53 AM 59.0 °F 45.0 °F 60% 30.09 in 10.0 mi WNW 6.9 mph - N/A   Scattered Clouds
1:53 AM 57.9 °F 45.0 °F 62% 30.09 in 10.0 mi WNW 4.6 mph - N/A   Scattered Clouds
2:53 AM 55.9 °F 45.0 °F 67% 30.11 in 10.0 mi NW 5.8 mph - N/A   Scattered Clouds
3:53 AM 55.0 °F 45.0 °F 69% 30.13 in 10.0 mi North 11.5 mph - N/A   Scattered Clouds
4:53 AM 52.0 °F 44.1 °F 74% 30.18 in 10.0 mi North 9.2 mph - N/A   Partly Cloudy
5:53 AM 55.0 °F 42.1 °F 62% 30.21 in 10.0 mi NNW 10.4 mph - N/A   Partly Cloudy
6:53 AM 52.0 °F 43.0 °F 71% 30.27 in 10.0 mi NNW 12.7 mph - N/A   Scattered Clouds
7:53 AM 53.1 °F 44.1 °F 71% 30.30 in 10.0 mi North 12.7 mph - N/A   Scattered Clouds
8:53 AM 55.9 °F 45.0 °F 67% 30.31 in 10.0 mi NNE 12.7 mph - N/A   Mostly Cloudy
9:53 AM 57.9 °F 46.0 °F 65% 30.32 in 10.0 mi NNE 15.0 mph - N/A   Mostly Cloudy
10:53 AM 61.0 °F 46.0 °F 58% 30.32 in 10.0 mi NE 9.2 mph - N/A   Mostly Cloudy
11:46 AM 62.6 °F 46.4 °F 55% 30.47 in 9.0 mi North 5.8 mph - N/A   Mostly Cloudy
11:53 AM 61.0 °F 46.0 °F 58% 30.31 in 10.0 mi ENE 5.8 mph - N/A   Mostly Cloudy
12:53 PM 62.1 °F 46.0 °F 56% 30.28 in 10.0 mi Variable 5.8 mph - N/A   Overcast
1:37 PM 64.4 °F 46.4 °F 52% 30.41 in 10.0 mi Variable 3.5 mph - N/A   Mostly Cloudy
1:53 PM 64.9 °F 46.0 °F 50% 30.23 in 10.0 mi NNE 4.6 mph - N/A   Mostly Cloudy
2:53 PM 64.0 °F 45.0 °F 50% 30.22 in 10.0 mi Calm Calm - N/A   Mostly Cloudy
3:53 PM 66.0 °F 45.0 °F 47% 30.20 in 10.0 mi East 5.8 mph - N/A   Mostly Cloudy
4:53 PM 66.9 °F 45.0 °F 45% 30.18 in 10.0 mi ESE 8.1 mph - N/A   Mostly Cloudy
5:53 PM 64.9 °F 45.0 °F 48% 30.18 in 10.0 mi East 6.9 mph - N/A   Mostly Cloudy
6:53 PM 61.0 °F 44.1 °F 54% 30.20 in 10.0 mi East 4.6 mph - N/A   Mostly Cloudy
7:53 PM 61.0 °F 44.1 °F 54% 30.22 in 10.0 mi ESE 3.5 mph - N/A   Mostly Cloudy
8:53 PM 55.0 °F 43.0 °F 64% 30.21 in 10.0 mi SSE 6.9 mph - N/A   Mostly Cloudy
9:53 PM 57.0 °F 44.1 °F 62% 30.21 in 10.0 mi WSW 4.6 mph - N/A   Scattered Clouds
10:53 PM 54.0 °F 43.0 °F 66% 30.20 in 10.0 mi South 3.5 mph - N/A   Scattered Clouds
11:53 PM 55.0 °F 43.0 °F 64% 30.21 in 10.0 mi WSW 3.5 mph - N/A   Scattered Clouds